Location: Veyrier
(46.1830°N, 6.2000°E)
Time: 11:11:52
(UTC+01:00)

Daily predictions for brighter satellites

Satellite Brightness Start Highest point End
(mag) Time Altitude Azimuth Time Altitude Azimuth Time Altitude Azimuth
SL-8 Rocket 4.2 17:49:12 10° N 17:55:11 49° ENE 18:01:11 10° SSE
Ariane Rocket 3.0 17:51:28 10° SSE 17:56:30 75° ENE 18:01:35 10° N
Tiangong 1 1.9 17:56:07 10° WSW 17:58:26 34° S 18:00:43 10° ESE
Cosmos 1300 3.1 17:55:18 10° N 17:58:57 39° ENE 18:02:33 10° SSE
FENGYUN 3A 4.3 17:54:37 10° SE 17:59:22 34° ENE 18:04:09 10° N
CZ-2C R/B 4.3 17:55:23 10° NNE 17:59:48 38° E 18:04:07 10° SSE
Cosmos 2218 Rocket 4.2 17:55:45 10° N 18:01:41 46° ENE 18:07:32 10° SSE
Cosmos 2221 2.5 17:59:29 10° N 18:03:52 76° E 18:08:14 10° SSE
Meteor 2-14 Rocket 4.4 17:58:50 10° N 18:04:58 79° E 18:11:03 10° SSE
ERS-2 3.6 18:02:58 10° ESE 18:05:26 17° ENE 18:07:55 10° NNE
ATLAS 2AS CENTAUR R/B 3.7 18:00:20 10° NW 18:08:06 59° WSW 18:15:16 10° SSE
ATLAS 5 CENTAUR R/B 4.2 18:05:48 10° NW 18:08:18 13° N 18:10:56 10° NNE
Cosmos 44 4.2 18:07:09 10° S 18:10:43 26° ESE 18:14:13 11° ENE
CSL-04 Debris 4.4 18:05:59 10° S 18:11:25 78° WSW 18:16:56 10° NNW
METEOR-M 4.1 18:08:07 10° SSE 18:13:24 67° ENE 18:18:44 10° N
SL-14 R/B 3.5 18:10:28 10° S 18:14:18 49° E 18:18:07 10° NNE
NOSS 2-1 (E) 3.9 18:12:02 10° SW 18:15:41 54° NW 18:19:59 10° NNE
Cosmos 1777 Rocket 4.3 18:11:51 10° N 18:16:53 44° ENE 18:21:53 10° SE
SPOT 3 Rocket 4.0 18:12:34 10° SE 18:17:18 38° ENE 18:22:03 10° N
BREEZE-M DEB 4.3 18:14:44 10° WNW 18:17:35 65° NNE 18:21:30 10° ESE
Cosmos 1484 Rocket 4.0 18:14:13 10° S 18:17:52 45° W 18:21:30 10° NNW
Meteor 2-10 4.0 18:12:59 10° NNW 18:18:03 88° W 18:23:10 10° S
SMAP 3.7 18:15:01 10° S 18:19:37 61° W 18:24:15 10° NNW
COSMOS 2406 4.5 18:17:44 10° SE 18:21:45 20° E 18:24:57 13° ENE
SL-16 R/B 4.4 18:17:49 10° W 18:21:49 19° NW 18:25:51 10° N
Cosmos 1408 Rocket 4.1 18:21:11 10° SSE 18:25:03 34° E 18:28:59 10° NNE
Cosmos 1992 Rocket 4.5 18:20:32 10° SSW 18:25:41 63° WNW 18:30:53 10° NNE
Cosmos 2151 4.4 18:24:34 10° SE 18:27:24 17° E 18:28:41 16° ENE
CZ-4 R/B 1.9 18:23:38 10° S 18:27:50 68° WSW 18:32:05 10° NNW
Meteor 1-28 Rocket 3.7 18:24:14 10° N 18:28:00 61° WNW 18:31:45 10° SSW
Cosmos 1726 3.4 18:27:31 10° NNW 18:31:02 44° W 18:34:31 10° SSW
NOSS 3-4 (A) 3.8 18:24:04 10° NW 18:31:02 74° NE 18:38:33 10° SE
NOSS 3-4 (C) 3.8 18:24:10 10° NW 18:31:08 73° NE 18:38:39 10° SE
COSMO-SKYMED 1 2.7 18:27:24 10° NNE 18:31:41 54° E 18:35:55 10° S
Cosmos 1943 3.7 18:26:59 10° SW 18:32:32 59° WNW 18:38:06 10° NNE
Geosat 4.1 18:29:35 10° NNE 18:34:38 79° WNW 18:39:39 10° SW
Cosmos 968 Rocket 4.2 18:31:36 10° NNW 18:36:39 56° WSW 18:41:37 10° S
Cosmos 1076 Rocket 3.6 18:33:00 10° S 18:37:22 85° W 18:41:46 10° N
Cosmos 2366 rocket 3.9 18:31:31 10° N 18:37:47 76° E 18:43:58 10° SSE
Cosmos 1346 Rocket 3.0 18:36:59 10° N 18:40:47 45° ENE 18:44:31 10° SSE
USA 116 4.3 18:37:27 10° N 18:41:41 75° WNW 18:46:26 10° SSW
Cosmos 1697 Rocket 4.5 18:39:39 10° N 18:42:05 13° NE 18:42:27 13° NE
ERBS 3.6 18:40:29 10° NNW 18:43:17 23° NNE 18:43:58 22° NE
Cosmos 44 Rocket 3.6 18:39:16 10° S 18:43:41 44° ESE 18:46:33 20° ENE
Cosmos 2228 Rocket 3.7 18:40:12 10° N 18:44:27 36° ENE 18:48:41 10° SE
Cosmos 909 Rocket 4.3 18:37:46 10° NNW 18:44:41 50° NE 18:50:47 10° ESE
Cosmos 1315 Rocket 2.6 18:40:54 10° S 18:44:48 75° E 18:48:44 10° NNE
H-2A R/B 3.2 18:45:52 10° SE 18:49:25 39° ENE 18:53:03 10° N
Cosmos 2098 Rocket 3.8 18:46:06 10° N 18:51:09 57° E 18:57:27 10° SSE
Cosmos 1743 Rocket 4.1 18:48:39 10° SSE 18:52:35 34° E 18:54:42 21° NE
Cosmos 1328 Rocket 3.5 18:50:10 10° N 18:54:30 58° ENE 18:58:46 10° SSE
GEOS 3 Rocket 4.0 18:50:50 17° ESE 18:54:37 45° NE 18:59:44 10° NNW
Cosmos 1455 2.5 18:53:13 10° N 18:56:54 41° ENE 19:00:31 10° SSE
Nadezhda 3 Rocket 4.2 18:52:48 10° SSE 18:58:47 46° E 19:04:48 10° NNE
MTI 3.7 18:56:27 12° N 18:59:25 82° WNW 19:02:36 10° SSW
Meteor 2-2 Rocket 4.3 18:54:12 10° NNW 18:59:59 81° W 19:05:37 10° S
MOS 1 4.5 18:56:22 10° S 19:02:00 74° WSW 19:07:40 10° NNW
Cosmos 332 Rocket 4.3 19:00:41 10° SSE 19:05:08 36° ESE 19:06:16 32° ENE
DMSP B5D1-3 4.4 19:00:34 10° NNE 19:05:40 69° ESE 19:10:44 10° S
ALOS 2.7 19:01:21 10° S 19:05:58 64° W 19:10:38 10° NNW
TIMED 4.4 19:01:54 10° NNW 19:06:15 62° ENE 19:10:34 10° SSE
Cosmos 1656 Rocket 4.2 19:03:08 10° NNW 19:08:32 61° WSW 19:13:58 10° S
NOAA 12 4.3 19:04:20 10° S 19:09:33 72° WSW 19:14:49 10° NNW
Envisat 3.8 19:10:37 29° NE 19:10:37 29° NE 19:14:25 10° N
Cosmos 1328 4.4 19:06:28 10° SSW 19:10:24 58° W 19:14:25 10° N
Cosmos 1766 Rocket 3.9 19:07:13 10° SSW 19:11:30 65° W 19:15:49 10° N
EO 1 Del DPAF 3.2 19:10:57 15° NNE 19:14:09 85° WNW 19:17:59 10° SSW
USA 215 4.2 19:13:54 22° NE 19:17:13 34° N 19:22:59 10° WNW
SKYMED 2 4.5 19:15:33 10° N 19:19:44 48° WNW 19:23:54 10° SW
Cosmos 1626 2.6 19:16:08 10° SSW 19:19:47 61° W 19:23:07 12° N
Landsat 4 4.4 19:16:15 10° N 19:19:54 52° WNW 19:23:31 10° SSW
Cosmos 1934 Rocket 4.2 19:16:02 10° N 19:22:06 45° ENE 19:28:09 10° SSE
Cosmos 1151 Rocket 2.9 19:25:45 10° N 19:30:10 87° E 19:34:33 10° S
Tiangong 1 3.5 19:30:45 10° WSW 19:31:47 14° SW 19:31:47 14° SW
Cosmos 1703 3.5 19:29:36 10° SSW 19:33:33 69° W 19:35:36 27° N
Thor Agena Rocket 3.6 19:33:43 51° E 19:34:04 52° E 19:39:08 10° S
ERS-2 3.5 19:35:21 10° S 19:38:49 39° W 19:42:19 10° NNW
Cosmos 2239 Rocket 4.3 19:32:50 10° N 19:39:01 76° E 19:45:09 10° SSE
Cosmos 1980 Rocket 4.1 19:36:55 10° N 19:38:43 15° NNE 19:38:43 15° NNE
Cosmos 2058 3.2 19:42:08 10° SSW 19:46:17 65° WNW 19:47:36 40° NNW
Cosmos 371 Rocket 3.1 19:45:43 10° SSW 19:50:24 82° SE 19:50:24 82° SE
Cosmos 44 4.1 19:47:35 10° WSW 19:51:42 41° NW 19:52:40 36° NNW
ATLAS 5 CENTAUR R/B 4.1 19:51:57 10° NNW 19:54:35 16° N 19:54:35 16° N
Cosmos 2278 4.4 19:52:07 10° NNW 19:56:10 40° NNE 19:56:10 40° NNE
Meteor 2-15 4.5 19:57:14 10° SSW 20:03:21 78° W 20:09:29 10° N
Cosmos 2151 4.0 20:00:14 10° SSW 20:04:19 45° WNW 20:05:22 37° NW
COSMOS 2406 3.4 19:59:48 10° SW 20:05:30 68° WNW 20:07:05 47° N
Cosmos 2369 4.3 20:06:18 10° NNW 20:10:24 46° N 20:10:24 46° N
Cosmos 1697 Rocket 4.3 20:21:53 10° NNW 20:24:12 25° N 20:24:12 25° N
Cosmos 1898 Rocket 4.4 20:23:23 10° NNW 20:27:09 45° NW 20:27:09 45° NW
USA 215 4.3 21:01:14 36° NNW 21:01:14 36° NNW 21:05:28 10° NW
